TELSTAR 12V

Last updated on Thu Oct 30 2025 00:02:50 GMT+0000 (Coordinated Universal Time)

1 41036U 15068A 25302.34628104 -.00000110 00000+0 00000+0 0 9995 2 41036 0.0188 266.7618 0002005 300.8657 299.9955 1.00264623 36310
UTC large
Height (km)
Speed (km/s)
/
Latitude / Longitude
Inclination (degrees)
Orbital Period (minutes)
Azimuth
Elevation
Range (km)
Doppler Factor

Next 0 passes for location: London (51.5072 / 0.1276)

Sorry there are no passes over London.